TVS57A LKPR-EDDH

Flight info

Callsign TVS57A
Flight time N/A
Altitude 36000
Route VENOX4B/30 VENOX DCT DEKOV Y621 ESLOR M748 RARUP RARUP3P
Aircraft A20N/M-SDE2E3FGHIRWXY/LB1

Departure

Time 2026-05-04 17:40
Airport Václav Havel Airport Prague (LKPR)

Arrival

Time N/A
Airport Hamburg Helmut Schmidt Airport (EDDH)
Time Latitude Longitude Altitude Speed Heading
2026-05-04 17:17 50.10621 14.26220 1187 ft 0 kts 26°
2026-05-04 17:27 50.10620 14.26220 1187 ft 2 kts 26°
2026-05-04 17:28 50.10589 14.26195 1188 ft 2 kts 16°
2026-05-04 17:29 50.10550 14.26188 1190 ft 0 kts
2026-05-04 17:30 50.10554 14.26189 1190 ft 2 kts
2026-05-04 17:31 50.10593 14.26194 1188 ft 0 kts
2026-05-04 17:32 50.10593 14.26195 1188 ft 0 kts 10°
2026-05-04 17:33 50.10559 14.26225 1189 ft 2 kts 190°
2026-05-04 17:33 50.10551 14.26223 1190 ft 0 kts 193°
2026-05-04 17:34 50.10316 14.26362 1198 ft 24 kts 127°
2026-05-04 17:34 50.10217 14.26567 1203 ft 22 kts 127°
2026-05-04 17:35 50.09971 14.27079 1212 ft 19 kts 127°
2026-05-04 17:35 50.09800 14.27396 1215 ft 20 kts 134°
2026-05-04 17:35 50.09703 14.27547 1218 ft 19 kts 135°
2026-05-04 17:36 50.09614 14.27683 1224 ft 16 kts 135°
2026-05-04 17:36 50.09539 14.27799 1229 ft 14 kts 135°
2026-05-04 17:36 50.09477 14.27894 1233 ft 11 kts 136°
2026-05-04 17:36 50.09389 14.28028 1236 ft 20 kts 135°
2026-05-04 17:37 50.09293 14.28175 1240 ft 19 kts 135°
2026-05-04 17:37 50.09219 14.28272 1246 ft 12 kts 156°
2026-05-04 17:37 50.09170 14.28279 1241 ft 0 kts 194°
2026-05-04 17:39 50.09112 14.28024 1244 ft 17 kts 303°
2026-05-04 17:39 50.09133 14.27979 1244 ft 0 kts 306°
2026-05-04 17:39 50.09273 14.27691 1237 ft 81 kts 307°
2026-05-04 17:40 50.09812 14.26575 1221 ft 173 kts 308°
2026-05-04 17:40 50.10593 14.24972 1845 ft 186 kts 308°
2026-05-04 17:40 50.11363 14.23385 2661 ft 179 kts 307°
2026-05-04 17:40 50.12115 14.21828 2964 ft 183 kts 307°
2026-05-04 17:41 50.12886 14.20225 3097 ft 187 kts 307°
2026-05-04 17:41 50.13670 14.18597 3215 ft 187 kts 307°
2026-05-04 17:41 50.14453 14.16971 3144 ft 189 kts 307°
2026-05-04 17:41 50.15235 14.15345 3001 ft 191 kts 307°
2026-05-04 17:42 50.16039 14.13673 3235 ft 194 kts 307°
2026-05-04 17:42 50.16846 14.11996 3832 ft 193 kts 306°
2026-05-04 17:42 50.17652 14.10321 4562 ft 192 kts 306°
2026-05-04 17:42 50.18457 14.08646 5219 ft 193 kts 306°
2026-05-04 17:43 50.19263 14.06967 5869 ft 194 kts 306°
2026-05-04 17:43 50.20072 14.05279 6531 ft 195 kts 305°
2026-05-04 17:43 50.20883 14.03599 7153 ft 196 kts 307°
2026-05-04 17:43 50.21901 14.02208 7788 ft 199 kts 328°
2026-05-04 17:44 50.22781 14.01704 8225 ft 202 kts 349°
2026-05-04 17:44 50.24667 14.01915 9115 ft 210 kts
2026-05-04 17:44 50.26106 14.02406 9802 ft 214 kts
2026-05-04 17:44 50.27578 14.02955 10439 ft 226 kts
2026-05-04 17:45 50.29170 14.03549 11103 ft 244 kts 10°
2026-05-04 17:45 50.30891 14.04191 11784 ft 264 kts 10°
2026-05-04 17:45 50.32109 14.04644 12243 ft 277 kts 10°
2026-05-04 17:45 50.34736 14.05621 13172 ft 304 kts 10°
2026-05-04 17:46 50.36126 14.06139 13639 ft 315 kts 10°
2026-05-04 17:46 50.38294 14.06949 14276 ft 324 kts 11°
2026-05-04 17:46 50.40492 14.07772 14902 ft 327 kts 11°
2026-05-04 17:46 50.43436 14.08875 15689 ft 330 kts 11°
2026-05-04 17:47 50.45668 14.09711 15974 ft 331 kts 11°
2026-05-04 17:47 50.47909 14.10550 16024 ft 332 kts 11°
2026-05-04 17:47 50.49424 14.11117 16022 ft 332 kts 11°
2026-05-04 17:47 50.51636 14.11947 16017 ft 332 kts 11°
2026-05-04 17:48 50.53885 14.12789 16016 ft 331 kts 11°
2026-05-04 17:48 50.56133 14.13570 16017 ft 331 kts
2026-05-04 17:48 50.58396 14.14205 16017 ft 330 kts
2026-05-04 17:48 50.60664 14.14755 16017 ft 330 kts
2026-05-04 17:49 50.62936 14.15270 16014 ft 330 kts
2026-05-04 17:49 50.65208 14.15779 16016 ft 330 kts
2026-05-04 17:49 50.67479 14.16294 16013 ft 330 kts
2026-05-04 17:49 50.69751 14.16821 16167 ft 330 kts
2026-05-04 17:50 50.71994 14.17345 16634 ft 331 kts
2026-05-04 17:50 50.74274 14.17888 17160 ft 332 kts
2026-05-04 17:50 50.76557 14.18439 17676 ft 334 kts
2026-05-04 17:50 50.78859 14.18996 18220 ft 339 kts
2026-05-04 17:51 50.80816 14.19467 18627 ft 354 kts
2026-05-04 17:51 50.81076 14.19530 18679 ft 356 kts
2026-05-04 17:51 50.83573 14.20129 19166 ft 370 kts
2026-05-04 17:52 50.86147 14.20749 19649 ft 376 kts
2026-05-04 17:52 50.88707 14.21336 20130 ft 378 kts
2026-05-04 17:52 50.91337 14.21354 20631 ft 378 kts 354°
2026-05-04 17:52 50.93964 14.20997 21132 ft 380 kts 350°
2026-05-04 17:53 50.96588 14.20437 21661 ft 382 kts 348°
2026-05-04 17:53 50.99220 14.19788 22186 ft 384 kts 348°
2026-05-04 17:53 51.01867 14.19120 22731 ft 387 kts 348°
2026-05-04 17:53 51.04512 14.18337 23250 ft 387 kts 341°
2026-05-04 17:54 51.07009 14.16670 23765 ft 385 kts 326°
2026-05-04 17:54 51.09197 14.14319 24226 ft 385 kts 320°
2026-05-04 17:54 51.11284 14.11716 24693 ft 386 kts 317°
2026-05-04 17:54 51.13334 14.08928 25172 ft 388 kts 315°
2026-05-04 17:55 51.15354 14.06069 25664 ft 390 kts 314°
2026-05-04 17:55 51.17383 14.03165 26160 ft 392 kts 314°
2026-05-04 17:55 51.19420 14.00257 26667 ft 395 kts 314°
2026-05-04 17:55 51.21468 13.97355 27189 ft 397 kts 315°
2026-05-04 17:56 51.23552 13.94424 27716 ft 399 kts 315°
2026-05-04 17:56 51.25602 13.91554 28240 ft 401 kts 315°
2026-05-04 17:56 51.27706 13.88612 28791 ft 403 kts 314°
2026-05-04 17:56 51.29824 13.85652 29341 ft 406 kts 314°
2026-05-04 17:57 51.31957 13.82667 29910 ft 408 kts 314°
2026-05-04 17:57 51.34094 13.79671 30406 ft 410 kts 314°
2026-05-04 17:57 51.36239 13.76661 30906 ft 411 kts 314°
2026-05-04 17:57 51.38387 13.73642 31410 ft 411 kts 314°
2026-05-04 17:58 51.40534 13.70621 31909 ft 411 kts 314°
2026-05-04 17:58 51.42683 13.67592 32438 ft 410 kts 314°
2026-05-04 17:58 51.44821 13.64576 32969 ft 409 kts 315°
2026-05-04 17:58 51.46945 13.61575 33504 ft 407 kts 315°
2026-05-04 17:59 51.49042 13.58610 34038 ft 406 kts 315°
2026-05-04 17:59 51.51168 13.55646 34534 ft 404 kts 315°
2026-05-04 17:59 51.55457 13.49891 35515 ft 399 kts 315°
2026-05-04 18:00 51.57589 13.47053 35890 ft 399 kts 315°
2026-05-04 18:00 51.59741 13.44175 36002 ft 406 kts 315°